Rbgn^[z[y[W
メイン
   新天体発見情報
     Comet P/2017 S5 (ATLAS)
投稿するにはまず登録を

スレッド表示 | 新しいものから 前のトピック | 次のトピック | 下へ
投稿者 スレッド
佐藤裕久
投稿日時: 2017-10-5 11:52
モデレータ
登録日: 2005-6-12
居住地: 日本
投稿: 2505
オンライン
Comet P/2017 S5 (ATLAS)

Aren Heinze (ハワイ大学)の通報によると、9月27.5日UT、小惑星地球衝突最終警報システム Asteroid 
Terrestrial-impact Last Alert System (ATLAS)調査プログラムのコースに、HaleakalaにあるATLAS
0.5-m f/2.0 Schmidt望遠鏡で得たCCD露出から彗星を発見した。
Heinzeは、この天体はp.a.およそ235°に向かって約20"の尾を伴う明確な彗星の特徴が見え、この彗星
の頭部も北東〜南西方向(FWHMは6".1)に一致するように伸びていると付け加え、一方近傍の恒星のイメ
ージ(FWHMは5".2)は丸く、コマの視直径は3".1と示唆した。と付け加えた。
小惑星センターのPCCP webpageに公表後、佐藤英貴氏(東京都文京区, iTelescope Sierra Remote天文台,
0.61-m f/6.5 アストログラフ, Auberry, カリフォルニア州, 遠隔操作; 9月28.2日UT、強い集光の10" 
のコマがあり、p.a. 230°に向かって40"のまっすぐな尾がある。5".0の円形範囲で測定したこの彗星の
w-バンド全光度は17.6等であった)やCCD位置観測者によって彗星状と観測された。

発見位置は次のとおり、

     2017 UT             R.A. (2000) Decl.       Mag.   Observatory
     Sept.11.52132    1 02 06.39   +25 59 41.1   18.5   Haleakala
          11.52656    1 02 06.20   +25 59 41.2   18.6     "
          11.53416    1 02 06.13   +25 59 40.7   18.5     "
          11.54034    1 02 06.00   +25 59 40.6   18.6     "
          13.48509    1 01 24.50   +25 58 33.9   18.3   Mauna Loa
          13.49649    1 01 24.19   +25 58 34.3   18.0     "
          13.50967    1 01 23.83   +25 58 33.0   17.6     "
          13.51013    1 01 23.83   +25 58 33.1   18.6     "
          17.47521    0 59 42.59   +25 52 23.8   17.9     "
          17.48426    0 59 42.33   +25 52 23.4   18.1     "
          17.49045    0 59 42.14   +25 52 21.9   18.2     "
          17.50457    0 59 41.69   +25 52 20.5   18.4     "
          23.46751    0 56 33.78   +25 33 11.4   18.4   Haleakala
          23.47773    0 56 33.37   +25 33 08.5   18.3     "
          23.49300    0 56 32.78   +25 33 04.3   17.9     "
          23.49925    0 56 32.54   +25 33 03.1   17.8     "
          27.48330    0 54 08.80   +25 13 42.5   18.2     "
          27.49072    0 54 08.49   +25 13 39.8   18.2     "
          27.49293    0 54 08.40   +25 13 39.2   17.8     "
          27.49771    0 54 08.21   +25 13 37.4   18.2     "

楕円軌道要素と位置推算表は次のとおり、

Orbital elements:
    P/2017 S5 (ATLAS)
Epoch 2017 July 26.0 TT = JDT 2457960.5
T 2017 July 28.05818 TT                                 MPCW
q   2.1789832            (2000.0)            P               Q
n   0.17449612     Peri.   99.97418     +0.97110803     +0.13646069
a   3.1716033      Node   252.38627     -0.19661053     +0.92246484
e   0.3129711      Incl.   11.85317     +0.13525342     +0.36116077
P   5.65
From 87 observations 2017 Sept. 11-29, mean residual 0".4.

    P/2017 S5 (ATLAS)
Epoch 2023 Apr. 6.0 TT = JDT 2460040.5
T 2023 Mar. 20.27691 TT                                 MPCW
q   2.1712231            (2000.0)            P               Q
n   0.17471476     Peri.  100.00772     +0.97107318     +0.13663902
a   3.1689568      Node   252.34324     -0.19677289     +0.92249180
e   0.3148461      Incl.   11.85901     +0.13526753     +0.36102446
P   5.64
From 87 observations 2017 Sept. 11-29, mean residual 0".4.

    P/2017 S5 (ATLAS)
Epoch 2017 Sept. 4.0 TT = JDT 2458000.5
T 2017 July 28.05695 TT                                 MPCW
q   2.1789825            (2000.0)            P               Q
n   0.17448887     Peri.   99.97422     +0.97110686     +0.13646910
a   3.1716912      Node   252.38574     -0.19661823     +0.92246387
e   0.3129903      Incl.   11.85320     +0.13525065     +0.36116008
P   5.65
From 87 observations 2017 Sept. 11-29, mean residual 0".4.

Ephemeris:
    P/2017 S5 (ATLAS)
Date    TT    R. A. (2000) Decl.     Delta      r     Elong.  Phase   m1
2017 08 30    01 04 11.4 +25 38 50   1.4042  2.1895   129.5    20.9  18.1
...
2017 09 14    01 01 12.6 +25 58 04   1.3143  2.2012   142.8    16.0  18.0
...
2017 09 22    00 57 23.5 +25 38 59   1.2819  2.2091   150.0    13.1  18.0
...
2017 09 28    00 53 49.5 +25 10 50   1.2660  2.2157   155.2    11.0  18.0
2017 09 29    00 53 11.5 +25 05 01   1.2641  2.2169   156.0    10.6  18.0
2017 09 30    00 52 33.0 +24 58 55   1.2625  2.2181   156.7    10.3  18.0
...
2017 10 06    00 48 36.4 +24 16 15   1.2573  2.2256   160.7     8.5  18.0
...
2017 10 14    00 43 25.9 +23 05 32   1.2635  2.2366   163.0     7.5  18.0
...
2017 10 29    00 35 56.9 +20 28 31   1.3171  2.2600   155.8    10.4  18.1

(CBET 4434、MPEC 2017.S213)

スレッド表示 | 新しいものから 前のトピック | 次のトピック | トップ

投稿するにはまず登録を
 
© 1999 Tsutomu Seki.